Regional Weather Roundup
Issued by NWS Upton, NY

Current Version | Previous Version | Text Only | Print | Product List | Glossary On
Versions: 1 2 3 4 5 6 7 8 9 10 11 12 13 14 15 16 17 18 19 20 21 22 23 24 25 26 27 28 29 30 31 32 33 34 35 36 37 38 39 40 41 42 43 44 45 46 47 48 49 50
000
ASUS41 KOKX 171505
RWROKX

REGIONAL WEATHER ROUNDUP
NATIONAL WEATHER SERVICE NEW YORK NY
1000 AM EST WED DEC 17 2014

NOTE: "FAIR" INDICATES FEW OR NO CLOUDS BELOW 12,000 FEET WITH NO
SIGNIFICANT WEATHER AND/OR OBSTRUCTIONS TO VISIBILITY.

NYZ071-072-176-178-NJZ106-104-171600-
NEW YORK CITY METRO AREA


CITY           SKY/WX    TMP DP  RH WIND       PRES   REMARKS
CENTRAL PARK   SUNNY     48  40  73 VRB5      29.88R
LAGUARDIA APRT MOSUNNY   48  40  73 NW14G21   29.86R
KENNEDY INTL   MOSUNNY   50  41  71 NW14      29.87R
NEWARK/LIBERTY MOSUNNY   48  42  80 W9        29.87R
BRNX BOT. GARD   N/A     48  41  76 W8        29.87R
TETERBORO      SUNNY     49  41  74 NW9       29.86R
$$

NYZ177-179-078>081-171600-
LONG ISLAND NEW YORK

CITY           SKY/WX    TMP DP  RH WIND       PRES   REMARKS
FARMINGDALE    MOSUNNY   49  42  77 NW12G17   29.84R
ISLIP          PTSUNNY   48  43  82 W10       29.82R
SHIRLEY        CLOUDY    46  44  93 W9        29.83R
WESTHAMPTON    PTSUNNY   46  43  89 NW12      29.83R
MONTAUK POINT    N/A     47  43  86 W8        29.79S
$$

NYZ052-065-067-171600-
HUDSON VALLEY

CITY           SKY/WX    TMP DP  RH WIND       PRES   REMARKS
WHITE PLAINS   MOSUNNY   47  41  80 W13       29.82S
NEWBURGH       MOSUNNY   45  45 100 W9        29.84F
MONTGOMERY     MOSUNNY   48  41  76 NW13      29.82S
POUGHKEEPSIE   CLOUDY    43  41  93 CALM      29.83S FOG
ALBANY         FOG       37  35  92 CALM      29.83S VSB 1
$$

NJZ001-105-106-008-010-013-015-019>022-104-171600-
NEW JERSEY

CITY           SKY/WX    TMP DP  RH WIND       PRES   REMARKS
NEWARK/LIBERTY MOSUNNY   48  42  80 W9        29.87R
TETERBORO      SUNNY     49  41  74 NW9       29.86R
CALDWELL       PTSUNNY   48  41  76 W8        29.87R
MORRISTOWN     MOSUNNY   52  45  76 W6        29.87R
SOMERVILLE     PTSUNNY   50  41  71 VRB7      29.87R
SUSSEX         MOSUNNY   44  41  89 VRB6      29.86R
ANDOVER          N/A     46  40  79 SW3       29.87R
TRENTON        CLOUDY    49  40  71 W9        29.89R
MILLVILLE      CLOUDY    46  42  86 W10       29.95R
ATLANTIC CITY  SUNNY     48  42  80 W13       29.93R
WRIGHTSTOWN    PTSUNNY   48  42  81 W9        29.88S
TOMS RIVER     PTSUNNY   48  43  81 NW15      29.90R
BELMAR         PTSUNNY   46  37  71 W10       29.88R
$$

PAZ047>061-062-071-171600-
EASTERN PENNSYLVANIA

CITY           SKY/WX    TMP DP  RH WIND       PRES   REMARKS
PHILADELPHIA   PTSUNNY   48  41  76 W14       29.94R
ALLENTOWN      CLOUDY    47  40  76 W9        29.90R
SCRANTON       CLOUDY    44  39  82 SW8       29.88R
$$

CTZ002-004>006-009-010-012-RIZ004-006-007-MAZ004-011-015-171600-
SOUTHERN NEW ENGLAND
 IN CT

CITY           SKY/WX    TMP DP  RH WIND       PRES   REMARKS
BRADLEY INTL   MOSUNNY   45  40  82 NE3       29.79S
HARTFORD       MOSUNNY   44  40  85 SE7       29.80F
DANBURY        PTSUNNY   43  39  86 NW6       29.83R
WTRBRY/OXFORD  MOSUNNY   43  37  81 NW3       29.81S
BRIDGEPORT     MOSUNNY   48  43  82 W9        29.81S
MERIDEN        SUNNY     46  41  82 CALM      29.80S
NEW HAVEN      MOSUNNY   49  42  77 W6        29.80S
CHESTER        PTSUNNY   43  39  87 NW6       29.79S
GROTON         MOSUNNY   46  43  89 NW6       29.77F
WILLIMANTIC    CLOUDY    43  40  89 CALM      29.79R

 IN RI

CITY           SKY/WX    TMP DP  RH WIND       PRES   REMARKS
PROVIDENCE     CLOUDY    45  42  89 NW7       29.75S
BLOCK ISLAND   CLOUDY    46  43  87 W10G16    29.77S
WESTERLY       CLOUDY    45  43  93 VRB3      29.78R

 IN MA

CITY           SKY/WX    TMP DP  RH WIND       PRES   REMARKS
BOSTON         CLOUDY    43  41  93 NW13      29.74S
WORCESTER      CLOUDY    38  38 100 NW9       29.75S WCI  31
WESTFIELD      PTSUNNY   42  39  89 VRB3      29.78F
PROVINCETOWN   CLOUDY    50  45  81 NW9       29.72R VSB 1/2
NANTUCKET      CLOUDY    51  47  86 SW12      29.71S
$$

ANZ330-335-338-340-345-350-353-355-171600-
COASTAL MARINE OBSERVATIONS


STATION/POSITION TIME  SKY/WX   TEMP    WIND        PRES    VSBY  WAVE
                                AIR SEA DIR/SP/G                  HT/PER
                 (UTC)          (F)     (DEG/KT/KT) (MB)    (MI)  (FT/S)
NY HARB ENTRANCE 1500            46 47  280/ 16/ 17 1011.6          2/10
4S FIRE IS       1500               46                N/A           3/ 5
20S FIRE ISLAND  1400            48 50              1010.5          3/ 4
23SW MTP         1500                                 N/A           3/ 4
HUDSON CANYON    1500            50 56  300/ 17/ 21 1010.5
EXECUTION ROCKS  1500            52 42  280/ 10/ 16   N/A
WESTERN LI SOUND 1400            45     280/  8/ 12   N/A           0
CENTRAL LI SOUND 1400            43 44  270/ 10/ 12   N/A           1/ 3
EASTERN LI SOUND NOT AVBL
ROBBINS REEF     1500            46     270/ 10/ 12 1010.3
$$


>>>>>>>>>>>>>>>>>>>>>>>>>>>> KEY <<<<<<<<<<<<<<<<<<<<<<<<<<<
>                                                          <
>     SKY/WX - SKY CONDITION/PRESENT WEATHER               <
>     TMP    - TEMPERATURE IN FAHRENHEIT                   <
>     DP     - DEWPOINT IN FAHRENHEIT                      <
>     RH     - RELATIVE HUMIDITY IN PERCENT                <
>     WIND   - DIRECTION AND SPEED IN MPH                  <
>     PRES   - MEAN SEA LEVEL PRESSURE IN INCHES OF HG     <
>     WCI    - WIND CHILL INDEX                            <
>     VSB    - VISIBILITY IN MILES                         <
>     HX     - HEAT INDEX                                  <
>     TC     - TEMPERATURE IN CELSIUS                      <
>     VRB    - VARIABLE WIND DIRECTION                     <
>                                                          <
>>>>>>>>>>>>>>>>>>>>>>>>>>>> KEY <<<<<<<<<<<<<<<<<<<<<<<<<<<





USA.gov is the U.S. government's official web portal to all federal, state and local government web resources and services.